WX4MMM Weather Reports


time (UTC)temp
C
wind
direction
speed
KPH
gust
KPH
rain 1hr
cm
rain 24hr
cm
rain mn
cm
humidity
%
barometer
mb
20260510162504 26 185 3.2 4.8 0.00 0.00 0.00 38 1014.6
20260510162004 26 214 3.2 4.8 0.00 0.00 0.00 42 1014.7
20260510161004 26 224 1.6 4.8 0.00 0.00 0.00 40 1014.8
20260510160503 26 237 1.6 3.2 0.00 0.00 0.00 44 1014.8
20260510160003 25 112 4.8 8.0 0.00 0.00 0.00 42 1014.8
20260510155503 25 18 1.6 4.8 0.00 0.00 0.00 41 1014.9
20260510155003 25 289 1.6 11.3 0.00 0.00 0.00 44 1015.1
20260510154503 25 273 3.2 11.3 0.00 0.00 0.00 42 1015.1
20260510154004 25 289 3.2 4.8 0.00 0.00 0.00 43 1015.1
20260510153503 25 18 1.6 4.8 0.00 0.00 0.00 44 1015.2
20260510153003 25 179 3.2 4.8 0.00 0.00 0.00 46 1015.2
20260510152004 26 260 1.6 3.2 0.00 0.00 0.00 48 1015.2
20260510151503 26 21 1.6 4.8 0.00 0.00 0.00 44 1015.1
20260510151004 25 294 0.0 3.2 0.00 0.00 0.00 46 1015.1
20260510150504 25 323 3.2 4.8 0.00 0.00 0.00 48 1015.1
20260510150003 24 332 1.6 4.8 0.00 0.00 0.00 52 1015.0
20260510145503 24 167 1.6 3.2 0.00 0.00 0.00 55 1015.0
20260510145004 24 132 1.6 4.8 0.00 0.00 0.00 55 1015.0
20260510144504 23 128 0.0 4.8 0.00 0.00 0.00 55 1015.1
20260510144004 23 63 1.6 4.8 0.00 0.00 0.00 54 1015.0
20260510143503 23 320 1.6 8.0 0.00 0.00 0.00 57 1015.0
20260510143004 23 305 1.6 4.8 0.00 0.00 0.00 60 1015.0
20260510142504 23 274 3.2 4.8 0.00 0.00 0.00 57 1015.0
20260510141504 23 312 1.6 3.2 0.00 0.00 0.00 60 1015.0
20260510141004 22 315 1.6 3.2 0.00 0.00 0.00 62 1015.0
20260510140503 22 17 1.6 4.8 0.00 0.00 0.00 63 1015.0
20260510140003 22 6 1.6 3.2 0.00 0.00 0.00 63 1014.9
20260510135503 21 297 0.0 3.2 0.00 0.00 0.00 65 1015.0
20260510135003 21 317 3.2 8.0 0.00 0.00 0.00 65 1015.1
20260510134504 21 107 0.0 4.8 0.00 0.00 0.00 66 1015.1
20260510134004 21 332 1.6 4.8 0.00 0.00 0.00 66 1015.3
20260510133504 21 353 3.2 4.8 0.00 0.00 0.00 67 1015.2
20260510133003 21 254 1.6 4.8 0.00 0.00 0.00 68 1015.1
20260510132504 21 69 0.0 3.2 0.00 0.00 0.00 72 1015.0
20260510132004 20 131 0.0 3.2 0.00 0.00 0.00 73 1015.0
20260510131503 20 324 1.6 4.8 0.00 0.00 0.00 73 1015.0
20260510131003 20 98 1.6 4.8 0.00 0.00 0.00 76 1014.9
20260510130003 18 335 1.6 1.6 0.00 0.00 0.00 81 1014.6
20260510125005 17 60 1.6 3.2 0.00 0.00 0.00 92 1014.7
20260510124503 17 98 0.0 1.6 0.00 0.00 0.00 95 1014.5
20260510124004 16 101 1.6 1.6 0.00 0.00 0.00 96 1014.4
20260510123503 16 158 1.6 1.6 0.00 0.00 0.00 96 1014.5
20260510123004 16 175 1.6 3.2 0.00 0.00 0.00 96 1014.5
20260510122503 15 103 1.6 3.2 0.00 0.00 0.00 96 1014.5
20260510122004 15 15 0.0 1.6 0.00 0.00 0.00 96 1014.5
20260510121504 15 112 0.0 1.6 0.00 0.00 0.00 96 1014.5
20260510120504 15 122 0.0 0.0 0.00 0.00 0.00 96 1014.4
20260510120003 15 122 0.0 0.0 0.00 0.00 0.00 96 1014.3
20260510115503 15 122 0.0 0.0 0.00 0.00 0.00 96 1014.3
20260510115004 15 122 0.0 1.6 0.00 0.00 0.00 96 1014.4
20260510114504 15 174 0.0 0.0 0.00 0.00 0.00 96 1014.2
20260510113003 15 174 0.0 1.6 0.00 0.00 0.00 96 1014.0
20260510112004 14 161 1.6 3.2 0.00 0.00 0.00 96 1013.9
20260510111504 14 177 0.0 0.0 0.00 0.00 0.00 96 1013.8
20260510111004 14 153 1.6 3.2 0.00 0.00 0.00 96 1013.8
20260510110503 14 161 0.0 1.6 0.00 0.00 0.00 96 1013.7
20260510110003 14 169 1.6 3.2 0.00 0.00 0.00 96 1013.6
20260510105004 14 190 1.6 1.6 0.00 0.00 0.00 96 1013.5
20260510104504 14 193 0.0 1.6 0.00 0.00 0.00 96 1013.4
20260510104004 14 223 0.0 1.6 0.00 0.00 0.00 96 1013.3
20260510103503 14 189 0.0 0.0 0.00 0.00 0.00 96 1013.1
20260510103003 14 189 0.0 0.0 0.00 0.00 0.00 96 1013.1
20260510102504 14 189 0.0 0.0 0.00 0.00 0.00 96 1013.0
20260510101503 14 170 1.6 3.2 0.00 0.00 0.00 96 1012.9
20260510101004 14 185 1.6 3.2 0.00 0.00 0.00 96 1012.8
20260510100503 14 338 0.0 0.0 0.00 0.00 0.00 96 1012.8
20260510100004 14 294 0.0 0.0 0.00 0.00 0.00 95 1012.7
20260510095504 15 294 0.0 0.0 0.00 0.00 0.00 96 1012.6
20260510095004 15 294 0.0 0.0 0.00 0.00 0.00 96 1012.5
20260510094504 15 187 0.0 0.0 0.00 0.00 0.00 95 1012.5
20260510093004 15 122 0.0 1.6 0.00 0.00 0.00 95 1012.4
20260510092503 15 78 0.0 1.6 0.00 0.00 0.00 95 1012.3
20260510092003 15 33 0.0 1.6 0.00 0.00 0.00 95 1012.3
20260510091504 15 41 0.0 1.6 0.00 0.00 0.00 95 1012.3
20260510091004 15 169 0.0 1.6 0.00 0.00 0.00 95 1012.2
20260510090503 15 174 0.0 1.6 0.00 0.00 0.00 95 1012.3
20260510090003 15 172 0.0 1.6 0.00 0.00 0.00 95 1012.2
20260510085504 15 181 1.6 1.6 0.00 0.00 0.00 95 1012.1
20260510085003 15 167 0.0 1.6 0.00 0.00 0.00 95 1012.0
20260510084504 15 137 0.0 1.6 0.00 0.00 0.00 95 1011.9
20260510084004 15 40 0.0 0.0 0.00 0.00 0.00 95 1011.9
20260510083504 15 40 0.0 0.0 0.00 0.00 0.00 95 1011.9
20260510083004 15 40 0.0 0.0 0.00 0.00 0.00 95 1011.9
20260510082004 15 40 0.0 0.0 0.00 0.00 0.00 94 1011.8
20260510081504 15 40 0.0 0.0 0.00 0.00 0.00 94 1011.8
20260510081003 15 40 0.0 0.0 0.00 0.00 0.00 94 1011.8
20260510080504 15 40 0.0 0.0 0.00 0.00 0.00 94 1011.8
20260510080004 15 40 0.0 0.0 0.00 0.00 0.00 94 1011.9
20260510075503 15 40 0.0 0.0 0.00 0.00 0.00 94 1011.9
20260510075004 15 40 0.0 0.0 0.00 0.00 0.00 94 1011.8
20260510074003 15 40 0.0 0.0 0.00 0.00 0.00 93 1011.7
20260510073504 15 40 0.0 0.0 0.00 0.00 0.00 93 1011.6
20260510073004 16 40 0.0 0.0 0.00 0.00 0.00 93 1011.5
20260510072503 16 40 0.0 0.0 0.00 0.00 0.00 93 1011.6
20260510071503 16 165 0.0 0.0 0.00 0.00 0.00 92 1011.6
20260510070503 16 51 0.0 1.6 0.00 0.00 0.00 92 1011.6
20260510070004 16 194 0.0 0.0 0.00 0.00 0.00 92 1011.7
20260510065503 16 194 1.6 1.6 0.00 0.00 0.00 91 1011.6
20260510065004 16 334 0.0 0.0 0.00 0.00 0.00 91 1011.5
20260510064504 16 41 0.0 0.0 0.00 0.00 0.00 90 1011.5
20260510064004 16 41 0.0 0.0 0.00 0.00 0.00 89 1011.6
20260510063503 17 41 0.0 0.0 0.00 0.00 0.00 89 1011.5
20260510063004 17 41 0.0 0.0 0.00 0.00 0.00 88 1011.4
20260510062504 17 20 0.0 0.0 0.00 0.00 0.00 88 1011.3
20260510062003 17 20 0.0 0.0 0.00 0.00 0.00 88 1011.3
20260510061504 17 20 0.0 1.6 0.00 0.00 0.00 87 1011.4
20260510061004 17 343 0.0 1.6 0.00 0.00 0.00 88 1011.6
20260510060504 17 350 0.0 1.6 0.00 0.00 0.00 88 1011.7
20260510060004 17 192 0.0 0.0 0.00 0.00 0.00 88 1011.8
20260510055504 17 156 1.6 3.2 0.00 0.00 0.00 88 1011.7
20260510054504 17 137 0.0 0.0 0.00 0.00 0.00 89 1011.7
20260510054004 17 137 0.0 0.0 0.00 0.00 0.00 89 1011.8
20260510053504 16 137 0.0 0.0 0.00 0.00 0.00 90 1011.9
20260510053004 16 137 0.0 3.2 0.00 0.00 0.00 91 1011.9
20260510052504 16 278 0.0 3.2 0.00 0.00 0.00 92 1011.9
20260510052004 16 281 0.0 0.0 0.00 0.00 0.00 92 1012.0
20260510051503 16 281 0.0 0.0 0.00 0.00 0.00 92 1012.0
20260510051004 16 281 0.0 1.6 0.00 0.00 0.00 93 1012.0
20260510050504 16 109 0.0 1.6 0.00 0.00 0.00 94 1012.0
20260510045503 16 160 0.0 0.0 0.00 0.00 0.00 94 1012.1
20260510045004 15 160 0.0 1.6 0.00 0.00 0.00 94 1012.2
20260510044504 15 182 0.0 0.0 0.00 0.00 0.00 94 1012.3
20260510044004 15 182 0.0 0.0 0.00 0.00 0.00 94 1012.1
20260510043503 15 182 0.0 0.0 0.00 0.00 0.00 94 1012.1
20260510043004 15 182 0.0 0.0 0.00 0.00 0.00 94 1012.1
20260510042504 15 182 0.0 0.0 0.00 0.00 0.00 94 1012.0
20260510042004 15 182 0.0 0.0 0.00 0.00 0.00 94 1012.1
20260510041005 15 182 0.0 0.0 0.00 0.00 0.00 94 1012.1
20260510040504 15 182 1.6 1.6 0.00 0.00 0.00 94 1012.0
20260510040004 15 156 0.0 0.0 0.00 0.00 0.00 94 1012.0
20260510035504 15 156 0.0 1.6 0.00 0.00 0.00 94 1011.9
20260510035004 15 28 0.0 0.0 0.00 0.00 0.00 94 1012.0
20260510034504 15 28 0.0 0.0 0.00 0.00 0.00 94 1012.0
20260510034004 16 28 0.0 1.6 0.00 0.00 0.00 94 1012.0
20260510033503 16 28 0.0 0.0 0.00 0.00 0.00 94 1012.0
20260510033003 16 28 0.0 0.0 0.00 0.00 0.00 94 1011.9
20260510032502 16 28 0.0 0.0 0.00 0.00 0.00 94 1011.9
20260510032003 16 28 0.0 0.0 0.00 0.00 0.00 94 1011.9
20260510031503 15 28 0.0 0.0 0.00 0.00 0.00 94 1011.9
20260510031003 15 28 0.0 1.6 0.00 0.00 0.00 94 1011.8
20260510030502 15 337 0.0 0.0 0.00 0.00 0.00 94 1011.8
20260510030004 15 337 0.0 0.0 0.00 0.00 0.00 94 1011.8
20260510025503 15 337 0.0 0.0 0.00 0.00 0.00 94 1011.7
20260510024503 15 337 0.0 0.0 0.00 0.00 0.00 94 1011.8
20260510024003 16 337 0.0 0.0 0.00 0.00 0.00 94 1011.8
20260510023504 16 337 0.0 0.0 0.00 0.00 0.00 94 1011.8
20260510023003 16 337 0.0 0.0 0.00 0.00 0.00 93 1011.8
20260510022502 16 337 0.0 1.6 0.00 0.00 0.00 93 1011.7
20260510021502 16 310 0.0 1.6 0.00 0.00 0.00 93 1011.6
20260510021003 16 300 0.0 1.6 0.00 0.00 0.00 92 1011.7
20260510020503 16 270 0.0 1.6 0.00 0.00 0.00 92 1011.7
20260510020002 16 295 0.0 1.6 0.00 0.00 0.00 92 1011.6
20260510015002 16 256 0.0 0.0 0.00 0.00 0.00 91 1011.6
20260510014503 16 287 0.0 0.0 0.00 0.00 0.00 91 1011.5
20260510014003 16 290 0.0 1.6 0.00 0.00 0.00 90 1011.4
20260510013503 16 279 0.0 1.6 0.00 0.00 0.00 90 1011.3
20260510013002 16 290 0.0 1.6 0.00 0.00 0.00 89 1011.2
20260510012503 17 341 0.0 0.0 0.00 0.00 0.00 88 1011.1
20260510012002 17 326 0.0 0.0 0.00 0.00 0.00 88 1011.0
20260510011503 17 294 0.0 0.0 0.00 0.00 0.00 87 1010.9
20260510011003 17 4 0.0 1.6 0.00 0.00 0.00 86 1010.9
20260510010502 17 258 0.0 1.6 0.00 0.00 0.00 86 1010.8
20260510010003 18 263 0.0 0.0 0.00 0.00 0.00 85 1010.8
20260510005502 18 213 0.0 1.6 0.00 0.00 0.00 84 1010.7
20260510005003 18 271 0.0 0.0 0.00 0.00 0.00 84 1010.8
20260510003503 18 266 0.0 1.6 0.00 0.00 0.00 82 1010.7
20260510003003 19 35 0.0 1.6 0.00 0.00 0.00 81 1010.8
20260510002502 19 39 0.0 1.6 0.00 0.00 0.00 80 1010.8
20260510002003 19 192 0.0 1.6 0.00 0.00 0.00 79 1010.8
20260510001502 19 357 0.0 1.6 0.00 0.00 0.00 78 1010.8
20260510001003 20 304 0.0 1.6 0.00 0.00 0.00 78 1010.7
20260510000503 20 337 0.0 1.6 0.00 0.00 0.00 77 1010.5
20260510000003 20 304 0.0 1.6 0.00 0.00 0.00 77 1010.5
20260509235503 20 25 0.0 1.6 0.00 0.00 0.00 76 1010.5
20260509234502 20 234 0.0 1.6 0.00 0.00 0.00 75 1010.2
20260509234003 21 339 0.0 1.6 0.00 0.00 0.00 73 1010.0
20260509233003 21 184 0.0 0.0 0.00 0.00 0.00 72 1010.2
20260509232502 21 185 0.0 1.6 0.00 0.00 0.00 72 1010.2
20260509232003 21 314 0.0 1.6 0.00 0.00 0.00 71 1010.1
20260509231503 21 165 0.0 1.6 0.00 0.00 0.00 71 1010.0
20260509231003 21 281 0.0 1.6 0.00 0.00 0.00 70 1010.0
20260509230503 21 323 0.0 1.6 0.00 0.00 0.00 70 1010.0
20260509230003 21 204 1.6 3.2 0.00 0.00 0.00 70 1010.0
20260509225503 21 141 1.6 4.8 0.00 0.00 0.00 69 1009.8
20260509224503 22 195 1.6 3.2 0.00 0.00 0.00 69 1009.8
20260509224004 22 209 0.0 4.8 0.00 0.00 0.00 68 1009.8
20260509223503 22 173 1.6 4.8 0.00 0.00 0.00 68 1009.9
20260509223003 22 124 1.6 4.8 0.00 0.00 0.00 68 1009.9
20260509222503 22 219 0.0 4.8 0.00 0.00 0.00 68 1009.9
20260509222003 22 176 0.0 3.2 0.00 0.00 0.00 68 1010.0
20260509221503 22 177 1.6 3.2 0.00 0.00 0.00 67 1009.9
20260509221004 22 142 1.6 9.7 0.00 0.00 0.00 67 1010.0
20260509220503 22 352 1.6 3.2 0.00 0.00 0.00 67 1010.0
20260509215503 22 241 1.6 9.7 0.00 0.00 0.00 66 1009.9
20260509215003 22 310 1.6 8.0 0.00 0.00 0.00 66 1009.9
20260509214503 22 164 3.2 4.8 0.00 0.00 0.00 66 1009.9
20260509214004 22 177 1.6 4.8 0.00 0.00 0.00 66 1009.8
20260509213503 22 177 3.2 8.0 0.00 0.00 0.00 65 1009.9
20260509213003 22 133 1.6 11.3 0.00 0.00 0.00 66 1009.6
20260509212504 22 303 3.2 8.0 0.00 0.00 0.00 66 1009.6
20260509211503 22 270 1.6 4.8 0.00 0.00 0.00 68 1009.5
20260509211003 22 180 1.6 4.8 0.00 0.00 0.00 67 1009.5
20260509210503 22 201 0.0 3.2 0.00 0.00 0.00 67 1009.5
20260509205503 22 163 1.6 4.8 0.00 0.00 0.00 67 1009.7
20260509204502 22 139 1.6 8.0 0.00 0.00 0.00 66 1009.7
20260509204003 22 250 1.6 4.8 0.00 0.00 0.00 66 1009.6
20260509203504 21 308 4.8 9.7 0.00 0.00 0.00 67 1009.6
20260509203003 22 200 3.2 4.8 0.00 0.00 0.00 67 1009.8
20260509202502 22 173 3.2 8.0 0.00 0.00 0.00 65 1009.7
20260509201503 22 222 1.6 3.2 0.00 0.00 0.00 67 1009.7
20260509201003 21 193 1.6 4.8 0.00 0.00 0.00 67 1009.6
20260509200003 21 181 3.2 4.8 0.00 0.00 0.00 66 1009.9
20260509195503 22 172 0.0 3.2 0.00 0.00 0.00 64 1010.0
20260509194503 21 268 1.6 3.2 0.00 0.00 0.00 63 1010.1
20260509194003 21 156 1.6 3.2 0.00 0.00 0.00 64 1010.1
20260509193502 21 194 3.2 8.0 0.00 0.00 0.00 62 1010.1
20260509192503 22 189 1.6 8.0 0.00 0.00 0.00 62 1010.4
20260509192003 22 271 1.6 4.8 0.00 0.00 0.00 61 1010.4
20260509191503 22 165 3.2 9.7 0.00 0.00 0.00 60 1010.3
20260509191003 22 325 3.2 9.7 0.00 0.00 0.00 60 1010.1
20260509190502 22 130 1.6 3.2 0.00 0.00 0.00 58 1010.2
20260509185502 22 177 1.6 4.8 0.00 0.00 0.00 58 1010.4
20260509185003 22 180 3.2 4.8 0.00 0.00 0.00 58 1010.3
20260509184003 23 157 1.6 8.0 0.00 0.00 0.00 57 1010.2
20260509183503 23 141 3.2 8.0 0.00 0.00 0.00 54 1010.2
20260509183002 23 142 1.6 8.0 0.00 0.00 0.00 55 1010.1
20260509182503 23 236 3.2 9.7 0.00 0.00 0.00 54 1010.1
20260509182003 23 270 1.6 4.8 0.00 0.00 0.00 56 1010.2
20260509181503 23 237 3.2 9.7 0.00 0.00 0.00 56 1010.4
20260509180503 22 213 1.6 14.5 0.00 0.00 0.00 54 1010.4
20260509180002 22 206 3.2 9.7 0.00 0.00 0.00 57 1010.7
20260509175502 22 168 4.8 9.7 0.00 0.00 0.00 55 1010.9
20260509175003 22 207 3.2 8.0 0.00 0.00 0.00 56 1010.9
20260509174003 22 236 3.2 8.0 0.00 0.00 0.00 55 1010.9
20260509173503 22 259 1.6 4.8 0.00 0.00 0.00 57 1010.8
20260509173003 22 201 1.6 4.8 0.00 0.00 0.00 56 1011.0
20260509172002 22 226 1.6 4.8 0.00 0.00 0.00 56 1011.2
20260509171003 22 118 4.8 8.0 0.00 0.00 0.00 56 1011.2
20260509170504 22 168 3.2 11.3 0.00 0.00 0.00 57 1011.4
20260509170002 22 198 3.2 4.8 0.00 0.00 0.00 58 1011.5
20260509165003 21 254 1.6 12.9 0.00 0.00 0.00 58 1011.5
20260509164504 21 231 3.2 14.5 0.00 0.00 0.00 58 1011.7
20260509164003 21 228 3.2 11.3 0.00 0.00 0.00 59 1011.6
20260509163503 22 194 3.2 9.7 0.00 0.00 0.00 58 1011.7
20260509163003 22 126 4.8 9.7 0.00 0.00 0.00 56 1011.4